sat.trackr.live / text

‹ back to catalog

STARLINK-30386

NORAD 57816 · 2023-138J

PAYLOAD ACTIVE UNKNOWN

§ Identity

Operator
Country
US
Launch date
2023-09-09
Launch site
AFETR
Launch vehicle
Mass (kg)
RCS (m²)

Purposes: comms

External: N2YO · Heavens-Above · Gunter

§ Orbital elements

Epoch: 2026-09-20T22:07:18.931296Z

Period
94.27 min
Inclination
43.0026°
Eccentricity
0.0001451
Mean motion
15.27575855 rev/d
Perigee alt
482.1 km
Apogee alt
484.1 km
Semi-major
6,861.2 km
B*
6.0834e-6
RAAN
211.8676°
Arg perigee
273.9097°
Mean anomaly
86.1589°
Rev number
16,841

§ Raw data

STARLINK-303861 57816U 23138J   26263.92174689 -.00000095  00000+0  60834-5 0  99992 57816  43.0026 211.8676 0001451 273.9097  86.1589 15.27575855168410

JSON: /api/v1/satellites/57816 · /tle

For live sub-satellite position, see the globe view (requires WebGL).

§ Visibility from observer

Set your observer location to see the next 7 days of passes ≥ 10°. The values pass through the URL so the page stays shareable.

No JS? Fill the form by hand. The geolocation button needs JavaScript.